When you browse on this site, cookies collect data to enhance your experience and personalize the content and advertising you see.
Visit our Privacy Policy to learn more. By continuing to use the site, you agree to this use of cookies and data.

Hourly Weather Manchester

Today, 7 July, Tuesday

Time Temperature Precipitation Wind Pressure Humidity
00:00 +11°C° 0 mm 3 mps 761 mmHg 88%
01:00 +12°C° 0.1 mm 2 mps 761 mmHg 88%
02:00 +12°C° 0.1 mm 2 mps 760 mmHg 88%
03:00 +12°C° 0.1 mm 1 mps 760 mmHg 88%
04:00 +12°C° 0 mm 1 mps 760 mmHg 87%
05:00 +13°C° 0 mm 1 mps 760 mmHg 85%
06:00 +13°C° 0 mm 1 mps 759 mmHg 87%
07:00 +14°C° 0.2 mm 2 mps 759 mmHg 83%
08:00 +13°C° 0.2 mm 3 mps 759 mmHg 78%
09:00 +14°C° 0.2 mm 4 mps 759 mmHg 74%
10:00 +13°C° 0.2 mm 3 mps 759 mmHg 76%
11:00 +13°C° 0.2 mm 3 mps 758 mmHg 79%
12:00 +13°C° 0 mm 2 mps 758 mmHg 84%
13:00 +13°C° 0.7 mm 2 mps 758 mmHg 85%
14:00 +12°C° 0.7 mm 3 mps 757 mmHg 87%
15:00 +12°C° 0.7 mm 3 mps 757 mmHg 88%
16:00 +13°C° 0.6 mm 2 mps 756 mmHg 89%
17:00 +13°C° 0.6 mm 1 mps 756 mmHg 89%
18:00 +13°C° 0.6 mm 1 mps 755 mmHg 89%
19:00 +13°C° 0.3 mm 1 mps 755 mmHg 90%
20:00 +13°C° 0.3 mm 1 mps 755 mmHg 90%
21:00 +13°C° 0.3 mm 1 mps 755 mmHg 91%
22:00 +13°C° 0.1 mm 1 mps 755 mmHg 91%
23:00 +13°C° 0.1 mm 1 mps 755 mmHg 90%

Tomorrow, 8 July, Wednesday

Time Temperature Precipitation Wind Pressure Humidity
00:00 +13°C° 0.1 mm 1 mps 755 mmHg 90%
01:00 +13°C° 0 mm 1 mps 755 mmHg 90%
02:00 +12°C° 0 mm 1 mps 755 mmHg 90%
03:00 +12°C° 0 mm 1 mps 755 mmHg 90%
04:00 +13°C° 0 mm 1 mps 755 mmHg 89%
05:00 +13°C° 0 mm 2 mps 755 mmHg 87%
06:00 +13°C° 0 mm 2 mps 755 mmHg 86%
07:00 +14°C° 0 mm 2 mps 756 mmHg 82%
08:00 +15°C° 0 mm 2 mps 756 mmHg 78%
09:00 +16°C° 0 mm 3 mps 756 mmHg 74%
10:00 +16°C° 0 mm 3 mps 756 mmHg 71%
11:00 +17°C° 0 mm 3 mps 756 mmHg 68%
12:00 +18°C° 0 mm 3 mps 757 mmHg 65%
13:00 +18°C° 0 mm 3 mps 756 mmHg 66%
14:00 +18°C° 0 mm 3 mps 756 mmHg 67%
15:00 +19°C° 0 mm 3 mps 756 mmHg 68%
16:00 +18°C° 0.3 mm 3 mps 756 mmHg 73%
17:00 +17°C° 0.3 mm 3 mps 756 mmHg 79%
18:00 +17°C° 0.3 mm 3 mps 755 mmHg 84%
19:00 +15°C° 1.7 mm 4 mps 755 mmHg 87%
20:00 +14°C° 1.7 mm 4 mps 755 mmHg 89%
21:00 +14°C° 1.7 mm 4 mps 755 mmHg 92%
22:00 +14°C° 1.7 mm 4 mps 755 mmHg 92%
23:00 +13°C° 1.7 mm 4 mps 755 mmHg 92%

Day after tomorrow, 9 July, Thursday

Time Temperature Precipitation Wind Pressure Humidity
00:00 +13°C° 1.7 mm 4 mps 754 mmHg 93%
01:00 +13°C° 0.6 mm 4 mps 754 mmHg 93%
02:00 +13°C° 0.6 mm 3 mps 753 mmHg 93%
03:00 +13°C° 0.6 mm 3 mps 753 mmHg 93%
04:00 +13°C° 0.9 mm 3 mps 753 mmHg 94%
05:00 +13°C° 0.9 mm 3 mps 753 mmHg 94%
06:00 +13°C° 0.9 mm 3 mps 752 mmHg 94%
07:00 +13°C° 0.9 mm 3 mps 752 mmHg 94%
08:00 +13°C° 0.9 mm 3 mps 752 mmHg 94%
09:00 +13°C° 0.9 mm 4 mps 752 mmHg 94%
10:00 +13°C° 0.5 mm 3 mps 752 mmHg 93%
11:00 +13°C° 0.5 mm 3 mps 751 mmHg 92%
12:00 +14°C° 0.5 mm 3 mps 751 mmHg 92%
13:00 +14°C° 0.2 mm 3 mps 751 mmHg 91%
14:00 +15°C° 0.2 mm 2 mps 751 mmHg 91%
15:00 +15°C° 0.2 mm 2 mps 751 mmHg 90%
16:00 +14°C° 0 mm 2 mps 751 mmHg 90%
17:00 +14°C° 0 mm 2 mps 751 mmHg 90%
18:00 +13°C° 0 mm 3 mps 751 mmHg 90%
19:00 +12°C° 0.2 mm 3 mps 752 mmHg 91%
20:00 +12°C° 0.2 mm 3 mps 752 mmHg 91%
21:00 +12°C° 0.2 mm 3 mps 753 mmHg 91%
22:00 +13°C° 0.1 mm 2 mps 753 mmHg 91%
23:00 +12°C° 0.1 mm 2 mps 753 mmHg 91%

10 July, Friday

Time Temperature Precipitation Wind Pressure Humidity
00:00 +12°C° 0.1 mm 2 mps 754 mmHg 90%
01:00 +12°C° 0.1 mm 2 mps 754 mmHg 90%
02:00 +12°C° 0.1 mm 2 mps 754 mmHg 90%
03:00 +12°C° 0.1 mm 2 mps 754 mmHg 90%
04:00 +12°C° 0.1 mm 2 mps 754 mmHg 88%
05:00 +11°C° 0.1 mm 3 mps 755 mmHg 86%
06:00 +11°C° 0.1 mm 3 mps 755 mmHg 85%
07:00 +12°C° 0.1 mm 3 mps 755 mmHg 80%
08:00 +13°C° 0.1 mm 4 mps 756 mmHg 76%
09:00 +14°C° 0.1 mm 4 mps 756 mmHg 72%
10:00 +15°C° 0.5 mm 4 mps 757 mmHg 72%
11:00 +15°C° 0.5 mm 4 mps 757 mmHg 73%
12:00 +15°C° 0.5 mm 4 mps 758 mmHg 73%
13:00 +15°C° 0.5 mm 5 mps 758 mmHg 71%
14:00 +16°C° 0.5 mm 5 mps 758 mmHg 70%
15:00 +16°C° 0.5 mm 6 mps 758 mmHg 68%
16:00 +16°C° 0.1 mm 6 mps 759 mmHg 68%
17:00 +15°C° 0.1 mm 6 mps 759 mmHg 67%
18:00 +15°C° 0.1 mm 6 mps 759 mmHg 67%
19:00 +14°C° 0 mm 5 mps 760 mmHg 71%
20:00 +12°C° 0 mm 4 mps 761 mmHg 75%
21:00 +11°C° 0 mm 4 mps 761 mmHg 79%
22:00 +11°C° 0 mm 3 mps 761 mmHg 80%
23:00 +11°C° 0 mm 3 mps 762 mmHg 81%

11 July, Saturday

Time Temperature Precipitation Wind Pressure Humidity
00:00 +10°C° 0 mm 3 mps 762 mmHg 82%
01:00 +10°C° 0 mm 3 mps 762 mmHg 83%
02:00 +10°C° 0 mm 3 mps 762 mmHg 84%
03:00 +10°C° 0 mm 3 mps 762 mmHg 86%
04:00 +10°C° 0 mm 3 mps 763 mmHg 85%
05:00 +11°C° 0 mm 3 mps 763 mmHg 84%
06:00 +11°C° 0 mm 4 mps 763 mmHg 82%
07:00 +12°C° 0 mm 4 mps 763 mmHg 78%
08:00 +13°C° 0 mm 4 mps 764 mmHg 73%
09:00 +14°C° 0 mm 4 mps 764 mmHg 68%
10:00 +15°C° 0 mm 4 mps 764 mmHg 67%
11:00 +15°C° 0 mm 4 mps 764 mmHg 65%
12:00 +17°C° 0 mm 4 mps 764 mmHg 64%
13:00 +17°C° 0 mm 4 mps 764 mmHg 63%
14:00 +17°C° 0 mm 4 mps 764 mmHg 61%
15:00 +18°C° 0 mm 4 mps 764 mmHg 60%
16:00 +17°C° 0 mm 4 mps 764 mmHg 63%
17:00 +17°C° 0 mm 4 mps 764 mmHg 65%
18:00 +15°C° 0 mm 4 mps 764 mmHg 68%
19:00 +14°C° 0 mm 3 mps 765 mmHg 72%
20:00 +14°C° 0 mm 2 mps 765 mmHg 75%
21:00 +13°C° 0 mm 1 mps 765 mmHg 79%
22:00 +12°C° 0 mm 1 mps 765 mmHg 80%
23:00 +12°C° 0 mm 1 mps 765 mmHg 82%

12 July, Sunday

Time Temperature Precipitation Wind Pressure Humidity
00:00 +11°C° 0 mm 1 mps 765 mmHg 84%
01:00 +10°C° 0 mm 0 mps 765 mmHg 84%
02:00 +10°C° 0 mm 0 mps 765 mmHg 85%
03:00 +10°C° 0 mm 0 mps 765 mmHg 85%
04:00 +10°C° 0 mm 0 mps 765 mmHg 84%
05:00 +12°C° 0 mm 1 mps 765 mmHg 82%
06:00 +13°C° 0 mm 1 mps 765 mmHg 80%
07:00 +14°C° 0 mm 1 mps 765 mmHg 75%
08:00 +16°C° 0 mm 1 mps 765 mmHg 69%
09:00 +17°C° 0 mm 2 mps 765 mmHg 63%
10:00 +18°C° 0 mm 2 mps 765 mmHg 60%
11:00 +19°C° 0 mm 2 mps 765 mmHg 56%
12:00 +21°C° 0 mm 2 mps 765 mmHg 52%
13:00 +21°C° 0 mm 2 mps 765 mmHg 53%
14:00 +21°C° 0 mm 2 mps 765 mmHg 53%
15:00 +23°C° 0 mm 2 mps 764 mmHg 53%
16:00 +21°C° 0 mm 2 mps 764 mmHg 58%
17:00 +20°C° 0 mm 2 mps 764 mmHg 62%
18:00 +20°C° 0 mm 2 mps 764 mmHg 67%
19:00 +18°C° 0 mm 2 mps 764 mmHg 70%
20:00 +18°C° 0 mm 1 mps 764 mmHg 73%
21:00 +15°C° 0 mm 1 mps 764 mmHg 77%
22:00 +15°C° 0 mm 1 mps 764 mmHg 77%
23:00 +14°C° 0 mm 1 mps 764 mmHg 77%
Show more